CAPE
0 0 0 3 41 37 32 34 115 59 61 65 50 28 24 23 20 67 71 9 64 196 177 119 74 38 39 19 12 18 30 21 28 24 30 32 18 23 22 22 13 13 12
0 0 0 0 0 8 21 26 33 66 59 74 54 38 33 23 16 18 72 45 5 126 196 142 109 75 37 25 16 23 30 28 22 31 25 29 17 10 12 8 10 14 8
0 0 0 0 0 0 3 1 5 27 89 65 64 44 6 2 12 36 31 11 0 20 82 172 142 94 85 27 22 27 33 31 18 20 16 22 12 13 9 13 7 7 4
0 0 0 0 0 0 0 6 9 2 9 51 69 49 17 13 5 28 45 2 12 11 30 90 120 162 74 69 29 25 44 27 18 13 11 13 12 10 9 7 8 7 7
0 0 0 0 0 0 0 0 0 7 2 5 49 58 37 7 0 7 44 17 4 19 90 22 30 37 103 103 62 43 46 39 18 20 16 14 13 8 7 6 5 3 2
0 0 0 0 4 0 0 0 0 0 14 0 0 22 50 40 15 10 10 23 3 11 62 80 25 1 19 118 107 74 67 37 25 32 18 15 12 10 8 5 4 5 2
0 2 6 0 0 6 0 0 0 0 0 24 7 0 0 0 1 1 7 27 17 24 18 15 34 17 2 51 118 121 87 41 23 26 25 20 19 10 8 10 6 4 2
0 0 0 2 0 0 3 1 0 0 0 0 0 0 0 0 1 0 0 0 0 0 13 2 11 10 0 2 34 110 125 94 54 31 25 24 27 16 19 12 9 5 3
2 0 0 2 0 0 2 17 1 0 0 0 6 0 0 0 0 0 0 0 0 0 0 0 0 0 0 0 1 17 58 126 122 55 36 28 29 25 22 15 10 6 4
0 2 0 0 0 17 12 15 22 0 0 0 0 15 0 0 0 1 0 0 0 0 0 0 0 0 0 0 0 0 0 16 37 53 49 36 35 31 22 21 18 8 5
1 3 6 7 9 17 24 25 31 31 0 0 0 2 3 0 0 0 0 0 0 0 0 0 0 0 0 0 0 0 0 0 3 7 14 36 28 45 32 24 19 9 6
10 8 5 8 8 8 10 28 40 46 25 8 1 11 1 0 0 0 0 0 0 0 0 0 0 0 0 0 0 0 0 0 0 0 1 18 28 39 35 28 19 16 6
5 8 7 4 8 11 9 6 11 3 14 34 22 15 0 7 0 0 0 0 0 1 0 0 0 0 0 0 0 0 0 0 0 0 0 6 19 28 33 30 18 16 6
8 5 3 10 8 11 16 11 15 6 18 48 23 15 2 1 17 0 0 0 1 0 1 0 0 0 0 0 0 1 0 0 0 1 4 10 11 25 22 20 16 10 2
7 5 3 4 10 14 15 12 23 32 41 66 47 23 16 5 10 1 0 0 0 0 0 0 0 0 0 0 0 0 0 0 0 3 8 15 17 21 15 14 13 8 6
14 15 3 6 12 17 28 23 8 0 0 0 20 38 26 11 23 1 0 0 0 0 0 0 0 0 0 0 0 1 0 0 0 4 15 22 19 13 14 19 16 10 6
6 17 2 2 9 13 14 14 7 3 16 26 19 29 31 23 4 9 0 0 0 0 0 0 0 0 3 0 3 0 0 0 0 5 26 24 16 17 26 28 19 5 3
4 2 8 1 4 11 21 16 12 13 4 4 0 2 15 34 4 0 0 0 0 0 0 0 0 0 0 0 0 0 0 0 0 14 30 18 20 24 26 29 13 2 2
2 0 2 0 0 1 2 5 0 0 0 0 0 0 2 4 0 0 0 0 0 1 0 0 0 0 0 0 0 0 0 0 0 11 20 18 21 22 27 22 9 5 1
1 0 0 0 0 0 0 0 0 0 0 0 0 0 0 0 0 0 0 0 0 0 0 0 0 0 0 0 0 0 0 0 0 0 2 2 10 17 24 22 8 3 0
1 0 0 0 0 0 0 0 0 0 0 0 0 0 0 0 0 0 0 0 0 0 0 0 0 0 0 0 0 0 0 0 0 0 0 0 0 0 3 13 0 0 0
0 0 0 0 0 0 5 7 2 0 0 0 0 0 0 0 0 0 0 0 0 0 0 0 0 0 0 0 0 0 0 0 0 0 0 0 0 0 0 0 0 0 0
0 0 0 0 0 0 4 4 2 0 0 0 0 0 0 0 0 0 1 1 0 0 0 0 0 0 0 0 0 0 0 0 0 0 0 0 0 0 0 0 0 0 0
1 0 1 0 0 5 11 6 1 0 0 0 0 0 0 0 0 0 0 0 0 0 0 0 0 0 0 0 0 0 0 0 0 0 0 0 0 0 0 0 0 0 0
1 1 1 0 0 6 16 6 0 0 0 0 0 0 0 0 2 1 0 0 0 0 6 5 4 5 8 8 0 0 0 0 0 0 0 0 0 0 0 0 0 0 0
2 0 0 0 0 2 14 12 2 0 0 0 0 0 3 2 7 4 0 0 0 0 0 0 0 5 2 3 2 0 0 0 0 0 0 0 0 0 0 0 0 0 0
CIN
0 0 0 0 -4 -13 -44 -69 -10 -12 -7 -7 -6 -17 -8 -21 -37 -22 -28 -133 -41 -1 0 0 -7 -22 -42 -28 0 0 0 0 0 0 0 0 0 0 0 0 0 0 0
0 0 0 0 0 -1 -20 -31 -57 -18 -7 -4 -4 -3 -4 -6 -31 -52 -26 -41 -33 -4 0 0 0 0 -20 -57 0 0 0 0 0 0 0 0 0 0 0 0 0 0 0
0 0 0 0 0 0 0 -3 -26 -31 -32 -10 -19 -9 0 -6 -18 -11 -47 -26 -46 -31 -5 0 0 0 0 -27 0 0 0 0 0 0 0 0 0 0 0 0 0 0 0
0 0 0 0 0 0 0 0 -4 -27 -17 -16 -19 -11 -29 -38 -41 -27 -27 -2 -25 -3 -18 -2 -1 0 0 -1 0 0 0 0 0 0 0 0 0 0 0 0 0 0 0
0 0 0 0 0 0 0 0 0 -1 -18 -18 -19 -14 -13 -32 0 -76 -31 -11 -122 -1 -10 -9 -6 -3 -1 0 0 -1 -3 0 0 0 0 0 0 0 0 0 0 0 0
0 0 0 0 -2 0 0 0 0 0 -2 -1 -6 -15 -3 -14 -24 -47 -50 -28 -18 -7 -1 0 -18 -9 -14 0 0 0 0 -15 0 0 0 0 0 0 0 0 0 0 0
0 0 0 0 0 -3 0 0 0 0 0 -1 -40 0 0 0 0 -14 -41 -21 -24 -15 -19 -13 -15 -5 -12 -3 0 0 0 -3 -1 0 0 0 0 0 0 0 0 0 0
0 0 0 0 0 0 0 -1 0 0 0 0 0 0 0 0 0 0 0 0 0 0 -10 -23 -14 -11 -2 -2 -4 0 0 0 0 0 0 0 0 0 0 0 0 0 0
0 0 0 0 0 0 0 0 -1 0 0 0 0 0 0 -4 0 0 0 0 0 0 0 -15 -1 0 -1 -2 -2 -6 -5 0 0 0 0 0 0 0 0 0 0 0 0
0 0 0 0 0 0 0 0 0 0 0 0 0 0 0 0 0 0 0 0 0 0 0 0 0 0 0 0 -1 0 -2 -11 -5 -1 0 0 0 0 0 0 0 0 0
0 0 0 0 0 0 0 0 0 -1 0 0 0 -1 0 0 0 0 0 0 0 0 0 0 0 0 0 0 0 0 0 0 -11 -3 -1 0 0 0 0 0 0 0 0
0 0 0 0 0 0 0 0 0 -1 -1 -1 -2 -4 0 0 0 0 0 0 0 0 0 0 0 0 0 0 0 0 0 0 0 0 -4 -1 0 0 0 0 0 0 0
0 0 0 -2 0 0 0 0 0 -2 -1 0 -1 -1 0 -1 0 0 0 0 0 0 0 0 0 0 0 0 0 0 0 0 0 0 0 0 0 0 0 0 0 0 0
0 0 0 0 -3 0 0 0 0 0 -1 -2 0 -2 -1 -3 0 0 0 0 0 0 0 0 0 0 0 0 0 0 0 0 0 -1 0 0 0 0 0 0 0 0 0
0 0 0 0 0 0 0 0 0 -2 -1 -1 -1 -1 0 -2 -2 -4 0 0 0 0 0 0 0 0 0 0 0 0 0 0 0 0 0 0 0 0 0 0 0 0 0
0 0 0 0 0 -1 0 0 0 0 -2 -4 -2 0 0 -2 -1 -3 0 0 0 0 0 0 0 0 0 0 0 0 0 0 0 0 0 0 0 0 0 0 0 0 0
0 0 -1 0 0 0 0 0 0 -2 -5 -2 -5 -1 -2 -1 -1 -22 0 0 0 0 0 0 0 0 0 0 0 0 0 0 0 0 0 0 0 0 0 0 0 0 0
0 0 0 0 0 0 0 0 0 0 -1 -1 0 -1 -1 -6 -14 0 0 0 0 0 0 0 0 0 0 0 0 0 0 0 0 0 0 0 0 0 0 0 0 0 0
0 0 0 0 0 0 0 -2 -7 -1 -2 0 0 0 -3 -20 0 0 0 0 0 0 0 0 0 0 0 0 0 0 0 0 0 0 0 0 0 0 0 0 0 0 0
0 0 0 0 0 0 0 0 0 0 0 0 0 -1 0 0 0 0 0 0 0 0 0 0 0 0 0 0 0 0 0 0 0 0 0 0 0 0 0 0 0 0 0
0 0 0 0 0 0 0 0 0 0 0 0 0 0 0 0 0 0 0 0 0 0 0 0 0 0 0 0 0 0 0 0 0 0 0 0 0 0 0 0 0 0 0
0 0 0 0 0 0 0 0 0 0 0 0 0 0 0 0 0 0 0 0 0 0 0 0 0 0 0 0 0 0 0 0 0 0 0 0 0 0 0 0 0 0 0
0 0 0 0 0 0 0 0 0 0 0 0 0 0 0 0 0 0 0 0 0 0 0 0 0 0 0 0 0 0 0 0 0 0 0 0 0 0 0 0 0 0 0
0 0 0 0 0 0 0 0 0 0 0 0 0 0 0 0 0 0 0 0 0 0 0 0 0 0 0 0 0 0 0 0 0 0 0 0 0 0 0 0 0 0 0
0 0 0 0 0 0 0 0 0 0 0 0 0 0 0 0 0 0 0 0 0 0 0 0 0 0 0 0 0 0 0 0 0 0 0 0 0 0 0 0 0 0 0
0 0 0 0 0 0 0 0 0 0 0 0 0 0 0 0 0 0 0 0 0 0 0 0 0 0 0 0 0 0 0 0 0 0 0 0 0 0 0 0 0 0 0
Wind_Speed
3 2 4 6 6 7 7 8 9 9 11 13 12 11 12 12 12 7 7 11 20 26 28 28 26 25 25 24 23 22 21 20 18 17 17 17 15 14 14 13 11 11 10
4 3 3 3 3 8 8 9 10 10 11 12 13 13 12 11 12 10 8 11 16 24 27 28 27 25 26 26 23 23 23 22 20 19 18 18 17 13 13 12 12 11 10
6 6 4 3 3 5 10 8 8 9 10 11 15 14 13 11 11 15 11 10 11 18 25 27 29 29 26 26 26 25 24 23 22 21 19 18 17 16 14 13 12 11 11
9 8 7 7 5 4 3 7 11 10 10 11 12 12 12 13 15 15 13 10 12 11 16 25 26 28 29 27 26 27 25 24 23 23 22 21 18 17 16 14 14 14 11
11 9 8 8 9 6 4 5 7 10 11 11 12 12 12 13 14 12 15 15 12 12 11 20 25 26 27 30 28 28 28 25 24 24 23 23 21 20 18 16 14 13 12
12 11 10 10 9 8 7 6 8 7 12 13 11 12 12 12 12 12 14 13 14 12 13 15 13 14 26 29 30 30 30 30 26 25 24 24 23 22 20 19 17 15 13
13 12 10 10 8 8 9 10 10 11 11 13 8 2 1 0 3 12 12 12 15 16 14 14 12 11 13 27 30 32 32 32 31 29 26 24 24 23 22 21 19 17 14
12 12 12 11 12 10 13 12 12 10 10 11 10 10 7 4 4 3 4 10 10 5 14 15 18 18 16 14 20 31 33 32 32 31 28 26 25 23 22 21 19 18 17
11 12 12 11 12 12 12 13 13 14 12 12 12 7 5 10 4 2 5 3 10 7 4 7 19 18 18 16 20 24 30 31 32 32 30 29 27 25 23 20 20 18 16
14 13 14 14 14 11 14 13 13 14 11 12 9 13 7 9 8 3 2 3 4 8 10 5 7 13 18 15 21 22 26 27 29 30 30 29 28 26 24 22 19 18 16
14 14 14 14 14 12 14 16 15 15 12 11 14 10 11 1 4 6 4 7 3 5 6 9 8 5 10 17 15 18 22 25 28 29 30 30 29 25 26 23 21 18 16
10 13 14 14 15 15 15 13 12 18 15 14 12 14 10 11 12 10 5 11 15 4 7 7 8 8 6 10 17 24 24 26 28 28 29 28 29 27 25 23 20 17 16
10 11 14 13 12 15 15 15 15 14 12 11 14 12 12 11 12 14 11 4 7 2 3 4 5 5 5 5 9 21 27 27 28 29 29 30 29 27 24 21 19 17 14
12 13 13 14 15 16 16 16 13 14 14 12 16 14 10 13 9 10 13 8 2 2 3 4 6 7 7 7 7 13 18 30 30 30 30 30 31 27 24 21 18 16 13
13 14 15 16 16 16 17 13 9 11 15 14 13 14 15 14 11 9 9 8 13 8 12 5 5 7 7 6 6 8 14 28 33 34 32 31 31 28 24 20 18 17 15
16 18 16 15 15 16 16 15 14 14 13 11 10 14 15 14 13 9 8 9 10 12 10 4 4 3 8 4 8 7 9 20 31 31 31 32 31 28 24 21 19 17 15
16 17 14 15 15 15 16 15 16 12 11 12 15 18 16 17 11 12 8 6 8 5 7 1 3 3 5 9 5 4 14 13 14 25 29 30 27 25 24 21 18 15 13
15 14 14 13 13 14 14 14 14 13 14 13 13 10 16 10 12 13 11 10 9 5 5 7 3 3 4 8 6 10 5 6 10 20 26 27 25 23 21 19 16 13 11
14 12 13 14 14 14 13 12 9 8 6 7 7 10 10 13 10 9 10 10 8 4 5 6 5 3 3 8 9 8 8 8 7 18 20 20 21 20 18 16 15 13 11
13 10 9 12 13 12 12 10 9 9 7 7 11 10 9 12 14 13 11 11 9 9 9 9 8 6 6 6 8 11 9 6 6 5 10 10 14 15 15 15 14 13 11
12 10 7 6 9 10 9 11 13 12 10 11 12 11 10 9 13 16 12 12 13 8 8 9 8 7 8 12 13 8 8 7 4 2 4 3 4 2 5 11 10 12 10
12 10 9 6 3 7 15 20 14 10 11 9 7 4 4 8 15 15 14 19 17 15 11 8 5 11 12 12 8 11 11 8 5 1 3 3 2 2 3 3 9 9 11
12 12 13 12 10 9 5 12 12 4 5 5 6 8 8 6 12 14 18 19 14 13 12 8 14 11 12 12 13 13 12 8 4 5 4 3 1 2 2 3 9 11 12
11 10 12 13 12 11 19 21 22 13 12 11 10 9 11 11 12 15 16 15 12 10 8 6 8 10 10 13 11 10 10 10 8 5 2 3 2 3 1 1 8 11 11
10 11 10 13 14 14 22 22 19 14 15 15 13 12 13 13 17 22 16 15 16 12 16 21 20 22 24 24 18 13 8 9 4 2 3 3 3 3 2 2 2 6 10
8 9 13 14 16 16 26 24 18 12 16 12 13 14 23 17 21 20 15 16 15 10 13 14 14 17 16 18 17 7 11 9 5 3 5 4 3 3 3 1 2 1 0
Wind_Direction
302 198 242 339 240 226 210 201 198 189 191 184 184 186 194 196 199 192 194 207 189 183 183 175 181 177 175 174 175 173 168 167 166 164 160 152 152 144 137 138 132 131 131
294 293 263 237 267 300 210 214 198 194 193 191 185 190 195 196 198 200 194 199 202 188 185 178 183 184 181 178 178 175 172 171 169 164 159 154 154 156 159 154 148 145 150
285 268 247 232 221 228 306 206 216 207 198 193 193 197 195 197 204 203 198 199 209 202 189 184 183 184 185 183 182 178 178 178 176 173 169 167 156 168 167 167 163 153 154
274 270 262 241 219 207 202 306 209 199 203 198 191 195 197 197 201 207 196 197 192 205 195 191 189 186 182 188 185 181 179 180 181 180 176 172 171 172 169 167 164 170 160
270 264 260 254 235 228 226 256 297 215 200 202 199 192 198 195 201 202 203 192 200 204 197 196 191 189 187 186 189 186 179 185 187 184 178 176 178 174 175 174 173 172 173
277 273 267 262 237 223 226 220 229 283 232 203 204 199 196 198 196 200 201 199 196 204 202 199 193 193 193 191 191 187 186 182 188 187 187 183 183 177 176 179 178 178 177
273 269 265 265 254 242 231 222 227 242 274 212 181 96 68 125 235 197 195 199 199 198 206 200 192 198 193 196 193 192 191 186 187 186 189 187 188 186 180 183 182 178 180
265 265 263 261 259 260 252 236 222 225 231 256 209 184 176 197 234 249 219 184 183 180 204 208 199 193 193 194 198 196 196 193 190 186 187 188 190 188 188 181 183 182 180
274 268 265 260 257 253 250 240 225 216 229 227 255 201 161 202 120 168 243 256 189 181 189 235 201 198 195 194 195 200 199 200 193 187 188 189 189 188 185 187 185 183 184
272 266 261 259 260 255 246 244 235 232 219 228 223 256 245 127 182 175 245 194 255 202 194 203 258 199 190 194 198 195 201 198 192 187 187 188 187 187 182 186 190 186 186
263 263 265 264 258 253 252 246 241 230 229 229 223 231 224 125 139 168 171 193 222 226 199 207 207 219 206 204 195 195 199 194 188 187 185 184 184 186 185 182 186 185 185
267 255 255 256 259 256 254 258 248 235 227 226 224 227 236 214 185 192 176 187 206 197 200 203 209 215 212 217 198 192 192 192 189 185 178 178 175 184 183 181 180 186 186
264 256 251 247 249 257 254 249 248 247 242 220 216 222 230 253 234 214 194 147 181 141 166 223 211 211 210 225 227 189 182 189 180 178 173 169 172 178 178 177 177 185 184
268 259 252 252 251 247 251 247 241 241 240 227 220 226 233 236 246 229 209 154 113 134 182 186 194 205 201 201 250 206 190 180 178 170 165 165 167 173 171 174 175 178 178
269 262 252 249 248 248 250 256 248 236 229 227 223 217 222 228 226 226 220 187 190 180 213 197 189 190 189 184 181 209 203 175 168 162 164 166 164 165 165 173 177 178 177
277 272 250 244 242 245 246 247 252 244 239 238 236 231 222 226 219 207 201 211 208 213 214 150 204 173 170 167 170 167 169 165 157 160 161 163 161 159 163 174 180 176 179
280 280 245 242 239 239 238 234 240 249 241 231 227 231 237 223 212 198 184 170 200 204 199 72 118 136 155 155 126 134 150 153 149 157 159 160 153 158 164 170 175 175 175
281 271 256 236 234 237 237 239 241 239 231 235 238 257 228 215 194 178 180 174 179 175 119 155 127 126 144 141 116 108 74 108 143 157 159 148 152 155 160 166 163 168 171
289 272 254 236 229 227 228 231 238 248 231 243 249 236 233 209 188 181 182 167 155 117 129 148 128 128 116 140 128 95 102 94 95 141 141 144 145 152 161 157 156 168 175
302 287 254 238 229 220 219 223 224 223 229 240 251 244 229 199 182 167 158 148 139 127 125 127 107 109 124 127 125 130 116 124 104 106 114 131 138 152 159 156 165 173 183
322 314 300 252 228 220 220 216 219 218 226 234 245 236 211 179 170 170 155 155 136 134 138 136 121 141 136 154 160 148 129 115 60 61 93 72 111 126 165 167 181 173 189
338 345 356 352 299 221 219 213 207 207 216 211 189 139 129 148 148 147 145 151 148 140 140 130 147 158 160 165 143 151 141 143 146 248 113 112 105 134 125 122 148 178 202
351 1 12 18 22 11 134 200 184 133 125 120 137 132 111 107 116 110 104 99 98 124 135 135 149 158 158 159 143 145 152 146 108 135 115 131 83 158 178 184 197 205 206
7 7 17 29 31 47 70 90 88 84 77 68 68 81 92 93 99 105 97 85 76 65 77 95 132 132 134 135 134 136 124 98 76 75 88 130 150 186 166 216 227 212 208
14 18 21 32 43 51 62 73 79 77 72 66 60 66 81 85 92 98 94 94 83 78 93 99 107 117 125 124 123 121 126 125 101 145 193 117 159 134 163 189 207 228 230
12 28 32 34 44 54 58 65 70 73 72 66 65 66 76 86 91 94 103 104 101 105 105 96 88 92 96 116 136 137 147 134 123 132 196 129 146 148 161 148 181 237 294